Time,TemperatureF,DewpointF,PressureIn,WindDirection,WindDirectionDegrees,WindSpeedMPH,WindSpeedGustMPH,Humidity,HourlyPrecipIn,Conditions,Clouds,dailyrainin,SoftwareType,DateUTC
2013-11-30 00:00:00,-5.4,0.0,30.15,SW,217,6.0,15.0,0,0.00,,,-99.99,Misterhouse,2013-11-30 06:00:00,
2013-11-30 00:15:00,-5.4,0.0,30.14,SSW,208,4.0,11.0,0,0.00,,,-99.99,Misterhouse,2013-11-30 06:15:00,
2013-11-30 00:30:00,-5.4,0.0,30.14,South,174,7.0,9.0,0,0.00,,,-99.99,Misterhouse,2013-11-30 06:30:00,
2013-11-30 00:45:00,-5.3,0.0,30.13,SSW,202,6.0,11.0,0,0.00,,,-99.99,Misterhouse,2013-11-30 06:45:00,
2013-11-30 01:00:00,-4.9,0.0,30.12,South,171,4.0,8.0,0,0.00,,,-99.99,Misterhouse,2013-11-30 07:00:00,
2013-11-30 01:15:00,-4.5,0.0,30.12,SSW,208,10.0,12.0,0,0.00,,,-99.99,Misterhouse,2013-11-30 07:15:00,
2013-11-30 01:30:00,-4.4,0.0,30.11,SSW,201,4.0,11.0,0,0.00,,,-99.99,Misterhouse,2013-11-30 07:30:00,
2013-11-30 01:45:00,-4.0,0.0,30.11,SSW,202,4.0,14.0,0,0.00,,,-99.99,Misterhouse,2013-11-30 07:45:00,
2013-11-30 02:00:00,-3.8,0.0,30.10,SSW,202,5.0,12.0,0,0.00,,,-99.99,Misterhouse,2013-11-30 08:00:00,
2013-11-30 02:15:00,-4.0,0.0,30.10,SSE,167,6.0,13.0,0,0.00,,,-99.99,Misterhouse,2013-11-30 08:15:00,
2013-11-30 02:30:00,-4.2,0.0,30.09,SSW,209,3.0,13.0,0,0.00,,,-99.99,Misterhouse,2013-11-30 08:30:00,
2013-11-30 02:45:00,-4.2,0.0,30.09,SSW,213,7.0,11.0,0,0.00,,,-99.99,Misterhouse,2013-11-30 08:45:00,
2013-11-30 03:00:00,-4.2,0.0,30.08,SSW,202,6.0,14.0,0,0.00,,,-99.99,Misterhouse,2013-11-30 09:00:00,
2013-11-30 03:15:00,-4.4,0.0,30.07,SW,230,4.0,9.0,0,0.00,,,-99.99,Misterhouse,2013-11-30 09:15:00,
2013-11-30 03:30:00,-4.4,0.0,30.07,SW,236,8.0,8.0,0,0.00,,,-99.99,Misterhouse,2013-11-30 09:30:00,
2013-11-30 03:45:00,-4.4,0.0,30.06,SW,226,8.0,12.0,0,0.00,,,-99.99,Misterhouse,2013-11-30 09:45:00,
2013-11-30 04:00:00,-4.0,0.0,30.06,SSE,163,4.0,12.0,0,0.00,,,-99.99,Misterhouse,2013-11-30 10:00:00,
2013-11-30 04:15:00,-4.4,0.0,30.06,SSW,201,3.0,11.0,0,0.00,,,-99.99,Misterhouse,2013-11-30 10:15:00,
2013-11-30 04:30:00,-4.2,0.0,30.06,SW,227,7.0,9.0,0,0.00,,,-99.99,Misterhouse,2013-11-30 10:30:00,
2013-11-30 04:45:00,-4.2,0.0,30.06,South,178,2.0,5.0,0,0.00,,,-99.99,Misterhouse,2013-11-30 10:45:00,
2013-11-30 05:00:00,-4.5,0.0,30.05,SW,216,3.0,6.0,0,0.00,,,-99.99,Misterhouse,2013-11-30 11:00:00,
2013-11-30 05:15:00,-4.9,0.0,30.05,SSW,213,3.0,7.0,0,0.00,,,-99.99,Misterhouse,2013-11-30 11:15:00,
2013-11-30 05:30:00,-5.3,0.0,30.04,South,171,3.0,6.0,0,0.00,,,-99.99,Misterhouse,2013-11-30 11:30:00,
2013-11-30 05:45:00,-4.9,0.0,30.04,SSE,168,1.0,5.0,0,0.00,,,-99.99,Misterhouse,2013-11-30 11:45:00,
2013-11-30 06:00:00,-5.3,0.0,30.04,SSW,208,2.0,8.0,0,0.00,,,-99.99,Misterhouse,2013-11-30 12:00:00,
2013-11-30 06:15:00,-4.7,0.0,30.04,SSW,208,4.0,8.0,0,0.00,,,-99.99,Misterhouse,2013-11-30 12:15:00,
2013-11-30 06:30:00,-4.9,0.0,30.04,SSW,195,11.0,11.0,0,0.00,,,-99.99,Misterhouse,2013-11-30 12:30:00,
2013-11-30 06:45:00,-4.9,0.0,30.04,SSE,157,4.0,10.0,0,0.00,,,-99.99,Misterhouse,2013-11-30 12:45:00,
2013-11-30 07:00:00,-4.9,0.0,30.04,WSW,240,7.0,7.0,0,0.00,,,-99.99,Misterhouse,2013-11-30 13:00:00,
2013-11-30 07:15:00,-5.3,0.0,30.04,SSW,198,7.0,10.0,0,0.00,,,-99.99,Misterhouse,2013-11-30 13:15:00,
2013-11-30 07:30:00,-5.3,0.0,30.04,SW,217,6.0,8.0,0,0.00,,,-99.99,Misterhouse,2013-11-30 13:30:00,
2013-11-30 07:45:00,-5.3,0.0,30.04,West,260,4.0,8.0,0,0.00,,,-99.99,Misterhouse,2013-11-30 13:45:00,
2013-11-30 08:00:00,-5.3,0.0,30.03,WSW,253,3.0,8.0,0,0.00,,,-99.99,Misterhouse,2013-11-30 14:00:00,
2013-11-30 08:15:00,-5.6,0.0,30.03,NW,309,0.0,6.0,0,0.00,,,-99.99,Misterhouse,2013-11-30 14:15:00,
2013-11-30 08:30:00,-5.4,0.0,30.03,SW,233,5.0,8.0,0,0.00,,,-99.99,Misterhouse,2013-11-30 14:30:00,
2013-11-30 08:45:00,-5.3,0.0,30.03,SW,233,5.0,8.0,0,0.00,,,-99.99,Misterhouse,2013-11-30 14:45:00,
2013-11-30 09:00:00,-4.7,0.0,30.02,SSW,213,2.0,11.0,0,0.00,,,-99.99,Misterhouse,2013-11-30 15:00:00,
2013-11-30 09:15:00,-4.5,0.0,30.02,WSW,248,5.0,8.0,0,0.00,,,-99.99,Misterhouse,2013-11-30 15:15:00,
2013-11-30 09:30:00,-4.0,0.0,30.02,WSW,258,2.0,9.0,0,0.00,,,-99.99,Misterhouse,2013-11-30 15:30:00,
2013-11-30 09:45:00,-3.6,0.0,30.02,West,277,4.0,9.0,0,0.00,,,-99.99,Misterhouse,2013-11-30 15:45:00,
2013-11-30 10:00:00,-2.9,0.0,30.03,WNW,295,4.0,7.0,0,0.00,,,-99.99,Misterhouse,2013-11-30 16:00:00,
2013-11-30 10:15:00,-2.4,0.0,30.02,WSW,241,7.0,9.0,0,0.00,,,-99.99,Misterhouse,2013-11-30 16:15:00,
2013-11-30 10:30:00,-2.0,0.0,30.03,West,271,3.0,10.0,0,0.00,,,-99.99,Misterhouse,2013-11-30 16:30:00,
2013-11-30 10:45:00,-1.7,0.0,30.02,West,278,5.0,7.0,0,0.00,,,-99.99,Misterhouse,2013-11-30 16:45:00,
2013-11-30 11:00:00,-1.1,0.0,30.02,West,261,1.0,6.0,0,0.00,,,-99.99,Misterhouse,2013-11-30 17:00:00,
2013-11-30 11:15:00,-0.9,0.0,30.02,West,275,3.0,8.0,0,0.00,,,-99.99,Misterhouse,2013-11-30 17:15:00,
2013-11-30 11:30:00,-0.8,0.0,30.01,SW,217,0.0,7.0,0,0.00,,,-99.99,Misterhouse,2013-11-30 17:30:00,
2013-11-30 11:45:00,-0.2,0.0,30.00,SSW,209,4.0,6.0,0,0.00,,,-99.99,Misterhouse,2013-11-30 17:45:00,
2013-11-30 12:00:00,0.0,0.0,30.00,West,261,5.0,8.0,0,0.00,,,-99.99,Misterhouse,2013-11-30 18:00:00,
2013-11-30 12:15:00,0.5,0.0,30.00,WNW,288,0.0,5.0,0,0.00,,,-99.99,Misterhouse,2013-11-30 18:15:00,
2013-11-30 12:30:00,0.7,0.0,29.99,WSW,255,4.0,6.0,0,0.00,,,-99.99,Misterhouse,2013-11-30 18:30:00,
2013-11-30 12:45:00,1.2,0.0,29.99,NW,324,3.0,7.0,0,0.00,,,-99.99,Misterhouse,2013-11-30 18:45:00,
2013-11-30 13:00:00,1.2,0.0,29.98,WSW,255,3.0,5.0,0,0.00,,,-99.99,Misterhouse,2013-11-30 19:00:00,
2013-11-30 13:15:00,1.8,0.0,29.98,WNW,293,4.0,5.0,0,0.00,,,-99.99,Misterhouse,2013-11-30 19:15:00,
2013-11-30 13:30:00,2.1,0.0,29.98,NNE,12,2.0,6.0,0,0.00,,,-99.99,Misterhouse,2013-11-30 19:30:00,
2013-11-30 13:45:00,2.5,0.0,29.98,NW,309,2.0,5.0,0,0.00,,,-99.99,Misterhouse,2013-11-30 19:45:00,
2013-11-30 14:00:00,2.7,0.0,29.98,SSW,202,2.0,5.0,0,0.00,,,-99.99,Misterhouse,2013-11-30 20:00:00,
2013-11-30 14:15:00,2.8,0.0,29.98,WNW,295,11.0,11.0,0,0.00,,,-99.99,Misterhouse,2013-11-30 20:15:00,
2013-11-30 14:30:00,3.0,0.0,29.98,NNW,331,7.0,10.0,0,0.00,,,-99.99,Misterhouse,2013-11-30 20:30:00,
2013-11-30 14:45:00,3.0,0.0,29.98,NW,323,3.0,8.0,0,0.00,,,-99.99,Misterhouse,2013-11-30 20:45:00,
2013-11-30 15:00:00,3.0,0.0,29.99,NW,307,3.0,10.0,0,0.00,,,-99.99,Misterhouse,2013-11-30 21:00:00,
2013-11-30 15:15:00,3.0,0.0,29.99,NW,323,4.0,11.0,0,0.00,,,-99.99,Misterhouse,2013-11-30 21:15:00,
2013-11-30 15:30:00,2.7,0.0,30.00,NW,307,1.0,8.0,0,0.00,,,-99.99,Misterhouse,2013-11-30 21:30:00,
2013-11-30 15:45:00,2.7,0.0,30.00,NNW,327,2.0,4.0,0,0.00,,,-99.99,Misterhouse,2013-11-30 21:45:00,
2013-11-30 16:00:00,2.5,0.0,30.00,NW,307,4.0,6.0,0,0.00,,,-99.99,Misterhouse,2013-11-30 22:00:00,
2013-11-30 16:15:00,2.5,0.0,30.01,NNE,12,3.0,8.0,0,0.00,,,-99.99,Misterhouse,2013-11-30 22:15:00,
2013-11-30 16:30:00,1.9,0.0,30.01,NNW,340,4.0,7.0,0,0.00,,,-99.99,Misterhouse,2013-11-30 22:30:00,
2013-11-30 16:45:00,1.4,0.0,30.02,WNW,300,3.0,7.0,0,0.00,,,-99.99,Misterhouse,2013-11-30 22:45:00,
2013-11-30 17:00:00,1.0,0.0,30.03,NW,322,3.0,8.0,0,0.00,,,-99.99,Misterhouse,2013-11-30 23:00:00,
2013-11-30 17:15:00,0.7,0.0,30.03,NNW,337,3.0,5.0,0,0.00,,,-99.99,Misterhouse,2013-11-30 23:15:00,
2013-11-30 17:30:00,0.1,0.0,30.04,NNW,336,5.0,7.0,0,0.00,,,-99.99,Misterhouse,2013-11-30 23:30:00,
2013-11-30 17:45:00,0.0,0.0,30.04,NNW,333,4.0,6.0,0,0.00,,,-99.99,Misterhouse,2013-11-30 23:45:00,
2013-11-30 18:00:00,0.0,0.0,30.05,NNW,336,4.0,6.0,0,0.00,,,-99.99,Misterhouse,2013-12-01 00:00:00,
2013-11-30 18:15:00,-0.2,0.0,30.05,North,358,4.0,7.0,0,0.00,,,-99.99,Misterhouse,2013-12-01 00:15:00,
2013-11-30 18:30:00,-0.2,0.0,30.05,NW,310,3.0,6.0,0,0.00,,,-99.99,Misterhouse,2013-12-01 00:30:00,
2013-11-30 18:45:00,-0.4,0.0,30.05,NNW,343,3.0,6.0,0,0.00,,,-99.99,Misterhouse,2013-12-01 00:45:00,
2013-11-30 19:00:00,-0.4,0.0,30.06,NW,316,1.0,6.0,0,0.00,,,-99.99,Misterhouse,2013-12-01 01:00:00,
2013-11-30 19:15:00,-0.8,0.0,30.06,NW,317,3.0,5.0,0,0.00,,,-99.99,Misterhouse,2013-12-01 01:15:00,
2013-11-30 19:30:00,-0.8,0.0,30.06,NW,315,1.0,4.0,0,0.00,,,-99.99,Misterhouse,2013-12-01 01:30:00,
2013-11-30 19:45:00,-0.8,0.0,30.06,NNW,337,1.0,4.0,0,0.00,,,-99.99,Misterhouse,2013-12-01 01:45:00,
2013-11-30 20:00:00,-0.9,0.0,30.06,North,358,3.0,6.0,0,0.00,,,-99.99,Misterhouse,2013-12-01 02:00:00,
2013-11-30 20:15:00,-0.9,0.0,30.06,NNW,337,3.0,5.0,0,0.00,,,-99.99,Misterhouse,2013-12-01 02:15:00,
2013-11-30 20:30:00,-1.1,0.0,30.06,NW,310,3.0,4.0,0,0.00,,,-99.99,Misterhouse,2013-12-01 02:30:00,
2013-11-30 20:45:00,-1.5,0.0,30.07,NW,310,3.0,5.0,0,0.00,,,-99.99,Misterhouse,2013-12-01 02:45:00,
2013-11-30 21:00:00,-1.3,0.0,30.07,NNW,327,3.0,4.0,0,0.00,,,-99.99,Misterhouse,2013-12-01 03:00:00,
2013-11-30 21:15:00,-1.3,0.0,30.07,NW,313,2.0,6.0,0,0.00,,,-99.99,Misterhouse,2013-12-01 03:15:00,
2013-11-30 21:30:00,-1.7,0.0,30.07,North,354,3.0,7.0,0,0.00,,,-99.99,Misterhouse,2013-12-01 03:30:00,
2013-11-30 21:45:00,-2.0,0.0,30.07,NNW,338,3.0,5.0,0,0.00,,,-99.99,Misterhouse,2013-12-01 03:45:00,
2013-11-30 22:00:00,-2.2,0.0,30.07,North,358,3.0,5.0,0,0.00,,,-99.99,Misterhouse,2013-12-01 04:00:00,
2013-11-30 22:15:00,-2.7,0.0,30.08,North,355,2.0,7.0,0,0.00,,,-99.99,Misterhouse,2013-12-01 04:15:00,
2013-11-30 22:30:00,-3.3,0.0,30.08,North,358,3.0,6.0,0,0.00,,,-99.99,Misterhouse,2013-12-01 04:30:00,
2013-11-30 22:45:00,-3.3,0.0,30.08,NNW,333,2.0,5.0,0,0.00,,,-99.99,Misterhouse,2013-12-01 04:45:00,
2013-11-30 23:00:00,-3.8,0.0,30.09,NNW,347,2.0,4.0,0,0.00,,,-99.99,Misterhouse,2013-12-01 05:00:00,
2013-11-30 23:15:00,-3.6,0.0,30.09,NNW,338,3.0,6.0,0,0.00,,,-99.99,Misterhouse,2013-12-01 05:15:00,
2013-11-30 23:30:00,-4.0,0.0,30.09,North,2,3.0,5.0,0,0.00,,,-99.99,Misterhouse,2013-12-01 05:30:00,
2013-11-30 23:45:00,-4.0,0.0,30.09,NW,324,3.0,5.0,0,0.00,,,-99.99,Misterhouse,2013-12-01 05:45:00,